When you browse on this site, cookies collect data to enhance your experience and personalize the content and advertising you see.
Visit our Privacy Policy to learn more. By continuing to use the site, you agree to this use of cookies and data.
  • In United Kingdom
  • List of Countries
  • For 7 days
  • Water Temperature
  • Satellite Maps
  • Weather Map
  • Weather Widgets
  • user-avatar
    Login

    Hourly Weather Wigston Magna

    Today, 23 July, Tuesday

    Time Temperature Precipitation Wind Pressure Humidity
    00:00 +18°C° 0 mm 2 mps 757 mmHg 93%
    01:00 +19°C° 0 mm 1 mps 757 mmHg 93%
    02:00 +19°C° 0 mm 1 mps 757 mmHg 93%
    03:00 +18°C° 0 mm 1 mps 757 mmHg 93%
    04:00 +19°C° 0 mm 1 mps 757 mmHg 93%
    05:00 +19°C° 0 mm 2 mps 756 mmHg 92%
    06:00 +19°C° 0 mm 2 mps 756 mmHg 92%
    07:00 +21°C° 0 mm 2 mps 756 mmHg 87%
    08:00 +23°C° 0 mm 2 mps 756 mmHg 83%
    09:00 +25°C° 0 mm 3 mps 756 mmHg 78%
    10:00 +26°C° 0 mm 3 mps 756 mmHg 72%
    11:00 +27°C° 0 mm 3 mps 755 mmHg 66%
    12:00 +28°C° 0 mm 3 mps 755 mmHg 60%
    13:00 +28°C° 0 mm 3 mps 755 mmHg 60%
    14:00 +29°C° 0 mm 3 mps 754 mmHg 60%
    15:00 +29°C° 0 mm 3 mps 754 mmHg 60%
    16:00 +29°C° 0 mm 3 mps 753 mmHg 63%
    17:00 +29°C° 0 mm 3 mps 753 mmHg 67%
    18:00 +29°C° 0 mm 4 mps 752 mmHg 70%
    19:00 +27°C° 0 mm 4 mps 752 mmHg 72%
    20:00 +25°C° 0 mm 5 mps 752 mmHg 74%
    21:00 +22°C° 0 mm 5 mps 751 mmHg 76%
    22:00 +22°C° 0.8 mm 5 mps 751 mmHg 80%
    23:00 +21°C° 0.8 mm 4 mps 751 mmHg 83%

    Tomorrow, 24 July, Wednesday

    Time Temperature Precipitation Wind Pressure Humidity
    00:00 +20°C° 0.8 mm 4 mps 750 mmHg 87%
    01:00 +20°C° 1 mm 3 mps 750 mmHg 88%
    02:00 +20°C° 1 mm 2 mps 750 mmHg 89%
    03:00 +19°C° 1 mm 2 mps 749 mmHg 91%
    04:00 +20°C° 0.1 mm 2 mps 749 mmHg 89%
    05:00 +21°C° 0.1 mm 2 mps 749 mmHg 88%
    06:00 +21°C° 0.1 mm 2 mps 749 mmHg 86%
    07:00 +22°C° 0 mm 3 mps 749 mmHg 84%
    08:00 +24°C° 0 mm 3 mps 749 mmHg 82%
    09:00 +25°C° 0 mm 3 mps 750 mmHg 79%
    10:00 +26°C° 0 mm 3 mps 750 mmHg 74%
    11:00 +27°C° 0 mm 3 mps 750 mmHg 68%
    12:00 +28°C° 0 mm 4 mps 750 mmHg 63%
    13:00 +28°C° 0 mm 4 mps 750 mmHg 62%
    14:00 +29°C° 0 mm 4 mps 750 mmHg 62%
    15:00 +29°C° 0 mm 4 mps 750 mmHg 62%
    16:00 +28°C° 0 mm 4 mps 751 mmHg 66%
    17:00 +27°C° 0 mm 4 mps 751 mmHg 70%
    18:00 +26°C° 0 mm 3 mps 751 mmHg 74%
    19:00 +25°C° 0 mm 3 mps 751 mmHg 78%
    20:00 +24°C° 0 mm 2 mps 751 mmHg 82%
    21:00 +21°C° 0 mm 2 mps 752 mmHg 85%
    22:00 +21°C° 0 mm 2 mps 751 mmHg 86%
    23:00 +20°C° 0 mm 2 mps 751 mmHg 86%

    Day after tomorrow, 25 July, Thursday

    Time Temperature Precipitation Wind Pressure Humidity
    00:00 +20°C° 0 mm 2 mps 751 mmHg 86%
    01:00 +20°C° 0 mm 2 mps 751 mmHg 84%
    02:00 +19°C° 0 mm 2 mps 751 mmHg 83%
    03:00 +19°C° 0 mm 2 mps 751 mmHg 81%
    04:00 +20°C° 0 mm 2 mps 750 mmHg 82%
    05:00 +20°C° 0 mm 2 mps 750 mmHg 84%
    06:00 +21°C° 0 mm 2 mps 750 mmHg 85%
    07:00 +22°C° 0 mm 3 mps 750 mmHg 81%
    08:00 +25°C° 0 mm 3 mps 750 mmHg 76%
    09:00 +26°C° 0 mm 4 mps 750 mmHg 72%
    10:00 +28°C° 0 mm 4 mps 750 mmHg 68%
    11:00 +29°C° 0 mm 4 mps 749 mmHg 65%
    12:00 +32°C° 0 mm 4 mps 749 mmHg 61%
    13:00 +32°C° 0 mm 4 mps 749 mmHg 63%
    14:00 +32°C° 0 mm 4 mps 749 mmHg 65%
    15:00 +31°C° 0 mm 3 mps 749 mmHg 67%
    16:00 +30°C° 0 mm 3 mps 748 mmHg 69%
    17:00 +30°C° 0 mm 3 mps 748 mmHg 71%
    18:00 +29°C° 0 mm 3 mps 748 mmHg 73%
    19:00 +27°C° 0 mm 3 mps 748 mmHg 76%
    20:00 +26°C° 0 mm 3 mps 749 mmHg 79%
    21:00 +25°C° 0 mm 2 mps 749 mmHg 83%
    22:00 +22°C° 0.3 mm 3 mps 749 mmHg 82%
    23:00 +21°C° 0.3 mm 3 mps 749 mmHg 81%

    26 July, Friday

    Time Temperature Precipitation Wind Pressure Humidity
    00:00 +20°C° 0.3 mm 3 mps 750 mmHg 81%
    01:00 +19°C° 0.2 mm 3 mps 749 mmHg 84%
    02:00 +19°C° 0.2 mm 3 mps 749 mmHg 86%
    03:00 +18°C° 0.2 mm 2 mps 749 mmHg 89%
    04:00 +18°C° 0 mm 2 mps 750 mmHg 89%
    05:00 +18°C° 0 mm 3 mps 750 mmHg 88%
    06:00 +18°C° 0 mm 3 mps 750 mmHg 87%
    07:00 +20°C° 0 mm 2 mps 751 mmHg 80%
    08:00 +21°C° 0 mm 2 mps 751 mmHg 74%
    09:00 +23°C° 0 mm 2 mps 751 mmHg 67%
    10:00 +24°C° 0 mm 2 mps 751 mmHg 63%
    11:00 +25°C° 0 mm 2 mps 751 mmHg 58%
    12:00 +26°C° 0 mm 3 mps 751 mmHg 54%
    13:00 +26°C° 0 mm 3 mps 751 mmHg 55%
    14:00 +26°C° 0 mm 2 mps 751 mmHg 56%
    15:00 +27°C° 0 mm 2 mps 751 mmHg 57%
    16:00 +26°C° 0 mm 2 mps 751 mmHg 60%
    17:00 +26°C° 0 mm 2 mps 751 mmHg 63%
    18:00 +25°C° 0 mm 1 mps 750 mmHg 66%
    19:00 +24°C° 0 mm 2 mps 751 mmHg 71%
    20:00 +21°C° 0 mm 2 mps 751 mmHg 75%
    21:00 +20°C° 0 mm 2 mps 751 mmHg 80%
    22:00 +20°C° 0 mm 2 mps 750 mmHg 81%
    23:00 +19°C° 0 mm 2 mps 750 mmHg 83%

    27 July, Saturday

    Time Temperature Precipitation Wind Pressure Humidity
    00:00 +19°C° 0 mm 2 mps 750 mmHg 84%
    01:00 +19°C° 0 mm 2 mps 749 mmHg 85%
    02:00 +18°C° 0 mm 2 mps 749 mmHg 86%
    03:00 +18°C° 0 mm 2 mps 749 mmHg 87%
    04:00 +18°C° 0.1 mm 2 mps 749 mmHg 86%
    05:00 +19°C° 0.1 mm 2 mps 748 mmHg 85%
    06:00 +19°C° 0.1 mm 2 mps 748 mmHg 85%
    07:00 +20°C° 0 mm 3 mps 748 mmHg 81%
    08:00 +22°C° 0 mm 3 mps 748 mmHg 78%
    09:00 +23°C° 0 mm 4 mps 748 mmHg 75%
    10:00 +23°C° 0.1 mm 4 mps 748 mmHg 75%
    11:00 +23°C° 0.1 mm 4 mps 748 mmHg 76%
    12:00 +25°C° 0.1 mm 4 mps 748 mmHg 77%
    13:00 +23°C° 0.3 mm 4 mps 747 mmHg 80%
    14:00 +22°C° 0.3 mm 4 mps 747 mmHg 82%
    15:00 +21°C° 0.3 mm 4 mps 747 mmHg 85%
    16:00 +20°C° 0.5 mm 4 mps 746 mmHg 88%
    17:00 +19°C° 0.5 mm 4 mps 746 mmHg 91%
    18:00 +19°C° 0.5 mm 4 mps 746 mmHg 93%
    19:00 +18°C° 2.9 mm 4 mps 746 mmHg 94%
    20:00 +17°C° 2.9 mm 5 mps 746 mmHg 95%
    21:00 +16°C° 2.9 mm 5 mps 746 mmHg 96%
    22:00 +16°C° 0.6 mm 5 mps 746 mmHg 95%
    23:00 +16°C° 0.6 mm 5 mps 746 mmHg 94%

    28 July, Sunday

    Time Temperature Precipitation Wind Pressure Humidity
    00:00 +16°C° 0.6 mm 5 mps 746 mmHg 94%
    01:00 +17°C° 0.1 mm 4 mps 746 mmHg 94%
    02:00 +15°C° 0.1 mm 4 mps 746 mmHg 94%
    03:00 +15°C° 0.1 mm 4 mps 746 mmHg 93%
    04:00 +15°C° 0 mm 5 mps 746 mmHg 93%
    05:00 +15°C° 0 mm 5 mps 747 mmHg 93%
    06:00 +14°C° 0 mm 5 mps 747 mmHg 92%
    07:00 +15°C° 0.3 mm 4 mps 747 mmHg 89%
    08:00 +15°C° 0.3 mm 4 mps 748 mmHg 87%
    09:00 +16°C° 0.3 mm 3 mps 748 mmHg 84%
    10:00 +17°C° 0 mm 3 mps 748 mmHg 80%
    11:00 +19°C° 0 mm 3 mps 748 mmHg 77%
    12:00 +20°C° 0 mm 3 mps 748 mmHg 73%
    13:00 +20°C° 0 mm 3 mps 749 mmHg 72%
    14:00 +20°C° 0 mm 2 mps 749 mmHg 70%
    15:00 +21°C° 0 mm 2 mps 749 mmHg 69%
    16:00 +21°C° 0.1 mm 2 mps 749 mmHg 70%
    17:00 +21°C° 0.1 mm 2 mps 749 mmHg 71%
    18:00 +21°C° 0.1 mm 2 mps 749 mmHg 72%
    19:00 +19°C° 0.2 mm 2 mps 750 mmHg 77%
    20:00 +18°C° 0.2 mm 2 mps 750 mmHg 83%
    21:00 +17°C° 0.2 mm 2 mps 751 mmHg 88%
    22:00 +16°C° 0 mm 2 mps 751 mmHg 89%
    23:00 +15°C° 0 mm 2 mps 751 mmHg 90%
    Show more